TimeMDT,TemperatureF,Dew PointF,Humidity,Sea Level PressureIn,VisibilityMPH,Wind Direction,Wind SpeedMPH,Gust SpeedMPH,PrecipitationIn,Events,Conditions,WindDirDegrees,DateUTC
12:53 AM,35.1,24.1,64,30.16,10.0,SE,9.2,-,N/A,,Mostly Cloudy,130,2013-05-05 06:53:00
1:53 AM,35.1,23.0,61,30.14,10.0,South,9.2,-,N/A,,Mostly Cloudy,170,2013-05-05 07:53:00
2:53 AM,33.1,24.1,70,30.14,10.0,SE,6.9,-,N/A,,Scattered Clouds,140,2013-05-05 08:53:00
3:53 AM,32.0,23.0,69,30.14,10.0,SE,6.9,-,N/A,,Scattered Clouds,140,2013-05-05 09:53:00
4:53 AM,32.0,21.9,66,30.12,10.0,SSE,9.2,-,N/A,,Scattered Clouds,150,2013-05-05 10:53:00
5:53 AM,32.0,21.9,66,30.12,10.0,South,10.4,-,N/A,,Scattered Clouds,170,2013-05-05 11:53:00
6:53 AM,36.0,24.1,62,30.13,10.0,South,9.2,-,N/A,,Mostly Cloudy,170,2013-05-05 12:53:00
7:53 AM,43.0,24.1,47,30.14,10.0,SW,10.4,-,N/A,,Mostly Cloudy,230,2013-05-05 13:53:00
8:53 AM,45.0,26.1,48,30.15,10.0,SW,5.8,-,N/A,,Mostly Cloudy,230,2013-05-05 14:53:00
9:53 AM,48.9,25.0,39,30.15,10.0,West,5.8,-,N/A,,Mostly Cloudy,270,2013-05-05 15:53:00
10:53 AM,51.1,24.1,35,30.14,10.0,Variable,3.5,-,N/A,,Mostly Cloudy,0,2013-05-05 16:53:00
11:53 AM,51.1,23.0,33,30.13,10.0,WNW,6.9,-,N/A,,Mostly Cloudy,290,2013-05-05 17:53:00
12:53 PM,54.0,24.1,31,30.09,10.0,NW,5.8,-,N/A,,Mostly Cloudy,310,2013-05-05 18:53:00
1:53 PM,57.9,24.1,27,30.05,10.0,WNW,4.6,-,N/A,,Mostly Cloudy,290,2013-05-05 19:53:00
2:53 PM,57.0,25.0,29,30.05,10.0,NW,9.2,-,N/A,,Overcast,320,2013-05-05 20:53:00
3:53 PM,57.9,26.1,30,30.03,10.0,NNW,10.4,-,N/A,,Overcast,340,2013-05-05 21:53:00
4:53 PM,57.9,21.9,25,30.01,10.0,SE,10.4,18.4,N/A,,Overcast,130,2013-05-05 22:53:00
5:14 PM,57.2,15.8,20,30.08,10.0,SE,17.3,-,N/A,,Overcast,140,2013-05-05 23:14:00
5:53 PM,57.2,17.6,21,30.10,10.0,SSE,9.2,-,N/A,,Overcast,160,2013-05-05 23:53:00
6:53 PM,55.9,23.0,28,30.04,10.0,West,3.5,-,N/A,,Overcast,260,2013-05-06 00:53:00
7:53 PM,53.1,21.0,29,30.03,10.0,SSE,5.8,-,N/A,,Overcast,150,2013-05-06 01:53:00
8:53 PM,46.9,25.0,42,30.04,10.0,SE,8.1,-,N/A,,Overcast,130,2013-05-06 02:53:00
9:53 PM,48.9,30.0,48,30.04,10.0,WSW,9.2,-,N/A,,Mostly Cloudy,250,2013-05-06 03:53:00
10:53 PM,46.9,33.1,59,30.03,10.0,WSW,9.2,-,N/A,,Mostly Cloudy,250,2013-05-06 04:53:00
11:53 PM,46.0,33.1,61,30.03,10.0,SW,9.2,-,N/A,,Mostly Cloudy,220,2013-05-06 05:53:00